#timestamp,LO_Frequency,Hit,StdDev 
1660593615.5,286047003.9,Y
1660593635.4,286047001.9,P
1660593655.2,286047000.4,N
1660593675.0,286047000.5,N
1660593675.9,286047000.5,N
1660593695.8,286047002.8,Y
1660593715.6,286046998.5,P
1660593735.4,286047001.2,N
1660593755.3,286047000.6,N
1660593775.1,286047000.3,N
1660593795.9,286046999.7,N
1660593815.7,286047000.8,N
1660593835.5,286046998.3,N
1660593855.4,286046998.6,N
1660593875.2,286046998.4,N
1660593895.0,286047000.6,N
1660593895.9,286047000.6,N
1660593915.8,286047001.0,N
1660593935.6,286047000.9,N
1660593955.5,286047000.4,N
1660593975.3,286047000.8,N
1660593995.1,286047002.7,N
1660594015.9,286047000.1,N
1660594035.7,286047001.6,N
1660594055.5,286047001.6,N
1660594075.4,286047001.8,N
1660594095.2,286047001.6,N
1660594115.1,286047001.6,N
1660594116.0,286047001.6,N
1660594135.8,286047001.9,N
1660594155.6,286047004.2,Y
1660594175.5,286047001.8,P
1660594195.3,286047001.3,N
1660594215.2,286047004.3,P
1660594235.9,286047001.7,N
1660594255.7,286047003.9,Y
1660594275.6,286047001.9,P
1660594295.4,286047002.5,P
1660594315.2,286047002.2,P
1660594335.1,286047002.0,Y
1660594336.0,286047002.0,P
1660594355.8,286046998.1,P
1660594375.7,286047001.1,N
1660594395.5,286047000.8,N
1660594415.3,286046999.9,N
1660594435.2,286047000.6,N
1660594455.0,286047000.4,N
1660594455.9,286047000.4,N
1660594475.8,286047001.0,N
1660594495.6,286046998.2,N
1660594515.4,286046998.6,N
1660594535.3,286047001.1,N
1660594555.1,286047000.8,N
1660594575.8,286046998.6,N
1660594595.7,286046999.1,N
1660594615.5,286046999.3,N
1660594635.4,286046998.3,N
1660594655.2,286046998.9,N
1660594675.0,286046999.5,N
1660594675.9,286046999.5,N
1660594695.8,286046996.5,N
1660594715.6,286046996.7,N
1660594735.4,286046998.3,N
1660594755.3,286046998.6,N
1660594775.1,286047000.4,N
1660594795.9,286046999.7,N
1660594815.7,286047000.4,N
1660594835.5,286047000.2,N
1660594855.4,286047002.8,N
1660594875.2,286046999.7,N
1660594895.0,286047000.7,N
1660594895.9,286047000.7,N
1660594915.8,286047001.2,N
1660594935.6,286047000.7,N
1660594955.5,286046998.2,N
1660594975.3,286046996.7,N
1660594995.1,286046996.7,N
1660595015.9,286046999.2,N
1660595035.7,286047001.2,N
1660595055.5,286046998.6,N
1660595075.4,286047001.1,N
1660595095.2,286047000.4,N
1660595115.1,286046999.8,N
1660595116.0,286046999.8,N
1660595135.8,286047002.2,N
1660595155.7,286046999.7,N
1660595175.5,286047000.1,N
1660595195.3,286047001.0,N
1660595215.2,286047000.4,N
1660595235.0,286047000.0,N
1660595235.9,286047000.0,N
1660595255.8,286046999.8,N
1660595275.6,286047002.7,N
1660595295.4,286047002.4,N
1660595315.3,286047000.3,N
1660595335.1,286047000.5,N
1660595355.9,286047000.1,N
1660595375.7,286046999.9,N
1660595395.5,286047000.7,N
1660595415.4,286046999.9,N
1660595435.2,286047000.4,N
1660595455.1,286046999.7,N
1660595456.0,286046999.7,N
1660595475.8,286047002.7,N
1660595495.6,286047002.8,N
1660595515.5,286047002.1,N
1660595535.3,286047001.6,N
1660595555.2,286047002.4,N
1660595575.0,286047002.3,N
1660595575.9,286047002.3,N
1660595595.7,286047000.3,N
1660595615.6,286047002.8,N
1660595635.4,286047002.4,N
1660595655.3,286047002.6,N
1660595675.1,286047002.4,N
1660595695.8,286047000.1,N
1660595715.7,286047000.2,N
1660595735.5,286047002.3,N
1660595755.4,286047001.7,N
1660595775.2,286047001.9,N
1660595795.0,286047001.4,N
1660595795.9,286047001.4,N
1660595815.8,286047001.8,N
1660595835.6,286047004.3,Y
1660595855.5,286047002.6,P
1660595875.3,286047002.6,P
1660595895.1,286047002.8,P
1660595915.9,286047002.6,Y
1660595935.7,286046998.1,P
1660595955.6,286046998.4,N
1660595975.4,286046998.3,N
1660595995.2,286046998.9,N
1660596015.1,286046998.6,N
1660596016.0,286046998.6,N
1660596035.8,286046998.5,N
1660596055.6,286046998.7,N
1660596075.5,286046999.5,N
1660596095.3,286046996.7,N
1660596115.2,286046999.2,N
1660596135.9,286046996.5,N
1660596155.7,286046999.5,N
1660596175.6,286046999.3,N
1660596195.4,286047001.0,N
1660596215.3,286046999.0,N
1660596235.1,286047000.7,N
1660596236.0,286047000.7,N
1660596255.8,286046998.4,N
1660596275.7,286046998.5,N
1660596295.5,286046998.2,N
1660596315.3,286046998.6,N
1660596335.2,286047000.9,N
1660596355.0,286047001.1,N
1660596355.9,286047001.1,N
1660596375.8,286046998.6,N
1660596395.6,286046998.6,N
1660596415.4,286046998.7,N
1660596435.3,286046999.0,N
1660596455.1,286046998.4,N
1660596475.9,286047001.2,N
1660596495.7,286046999.0,N
1660596515.5,286046998.7,N
1660596535.4,286046999.3,N
1660596555.2,286047000.7,N
1660596575.0,286047001.0,N
1660596575.9,286047001.0,N
1660596595.8,286047001.0,N
1660596615.6,286047001.0,N
1660596635.5,286047001.1,N
1660596655.3,286046998.6,N
1660596675.1,286046998.3,N
1660596695.9,286046998.9,N
1660596715.7,286046998.3,N
1660596735.6,286046998.3,N
1660596755.4,286046998.5,N
1660596775.2,286046998.6,N
1660596795.1,286046999.0,N
1660596796.0,286046999.0,N
1660596815.8,286046996.9,N
1660596835.7,286046999.1,N
1660596855.5,286047001.1,N
1660596875.3,286046998.2,N
1660596895.2,286046998.2,N
1660596915.0,286046998.6,N
1660596915.9,286046998.6,N
1660596935.7,286046999.3,N
1660596955.6,286046999.3,N
1660596975.4,286046998.3,N
1660596995.3,286047001.2,N
1660597015.1,286046998.2,N
1660597035.8,286047001.2,N
1660597055.7,286047000.5,N
1660597075.5,286047002.1,N
1660597095.3,286047001.3,N
1660597115.2,286047004.3,Y
1660597135.0,286047004.1,P
1660597135.9,286047004.1,N
1660597155.8,286047003.3,N
1660597175.6,286047003.6,N
1660597195.4,286047003.9,N
